Weather History for Bowling Green, KY

Change the Weather History Date:

Wednesday, February 6, 2013

  Actual Average Record
Temperature  
Mean Temperature 43 °F 38 °F  
Max Temperature 55 °F 48 °F 69 °F (1925)
Min Temperature 30 °F 28 °F -2 °F (1886)
Degree Days  
Heating Degree Days 22 27  
Month to date heating degree days 174 166  
Since 1 July heating degree days 2375 2658  
Cooling Degree Days 0 0  
Month to date cooling degree days 0 0  
Year to date cooling degree days 0 0  
Moisture  
Dew Point 31 °F    
Average Humidity 62    
Maximum Humidity 89    
Minimum Humidity 35    
Precipitation  
Precipitation 0.00 in 0.15 in 1.30 in (2008)
Month to date precipitation 0.10 0.88  
Year to date precipitation 5.59 4.49  
Snow  
Snow 0.00 in 0.10 in 3.00 in (1998)
Month to date snowfall 1.0 0.9  
Since 1 July snowfall 1.3 5.4  
Snow Depth 0.00 in    
Sea Level Pressure  
Sea Level Pressure 30.19 in    
Wind  
Wind Speed 2 mph (NNE)    
Max Wind Speed 8 mph    
Max Gust Speed 24 mph    
Visibility 9 miles    
Events      
T = Trace of Precipitation, MM = Missing Value Source: NWS Daily Summary

Daily Weather History Graph

Daily Weather History Graph

Search for Another Location

Airport:

Trip Planner

Search our weather history database for the weather conditions in past years. The results will help you decide how hot, cold, wet, or windy it might be!

Date:

Astronomy

Feb. 06, 2013 Rise Set
Actual Time 6:43 AM CST 5:16 PM CST
Civil Twilight 6:16 AM CST 5:43 PM CST
Nautical Twilight 5:45 AM CST 6:14 PM CST
Astronomical Twilight 5:15 AM CST 6:44 PM CST
Moon 3:23 AM CST (2/6) 1:37 PM CST (2/6)
Length of Visible Light 11h 27m
Length of Day
10h 33m
Waning Crescent, 17% of the Moon is Illuminated
Feb 6
Waning Crescent
Feb 10
New
Feb 17
First Quarter
Feb 25
Full
Mar 4
Last Quarter

Hourly Weather History & Observations

Time (CST) Temp. Windchill Dew Point Humidity Pressure Visibility Wind Dir Wind Speed Gust Speed Precip Events Conditions
1:53 AM 37.0 °F - 30.9 °F 79% 30.12 in 10.0 mi Calm Calm - N/A   Clear
2:53 AM 36.0 °F 33.3 °F 32.0 °F 86% 30.14 in 10.0 mi North 3.5 mph - N/A   Clear
3:53 AM 37.0 °F - 30.9 °F 79% 30.16 in 10.0 mi Calm Calm - N/A   Clear
4:53 AM 36.0 °F 33.3 °F 30.9 °F 82% 30.18 in 9.0 mi NW 3.5 mph - N/A   Clear
5:53 AM 35.1 °F 32.2 °F 30.0 °F 82% 30.20 in 8.0 mi NNW 3.5 mph - N/A   Clear
6:53 AM 33.1 °F - 28.9 °F 85% 30.22 in 5.0 mi Calm Calm - N/A   Clear
7:53 AM 34.0 °F - 28.9 °F 82% 30.23 in 4.0 mi Calm Calm - N/A   Haze
8:53 AM 39.9 °F 35.8 °F 32.0 °F 73% 30.24 in 7.0 mi NNE 5.8 mph - N/A   Clear
9:53 AM 43.0 °F - 33.1 °F 68% 30.26 in 8.0 mi Calm Calm - N/A   Clear
10:53 AM 46.0 °F 44.8 °F 33.1 °F 61% 30.26 in 10.0 mi ENE 3.5 mph - N/A   Clear
11:53 AM 48.0 °F - 32.0 °F 54% 30.24 in 10.0 mi Calm Calm - N/A   Clear
12:53 PM 50.0 °F - 30.9 °F 48% 30.22 in 10.0 mi Calm Calm - N/A   Clear
1:53 PM 53.1 °F - 30.9 °F 43% 30.20 in 10.0 mi Variable 3.5 mph - N/A   Clear
2:53 PM 54.0 °F - 28.9 °F 38% 30.19 in 10.0 mi Variable 3.5 mph - N/A   Clear
3:53 PM 53.1 °F - 26.1 °F 35% 30.18 in 10.0 mi Calm Calm - N/A   Clear
4:53 PM 50.0 °F - 27.0 °F 41% 30.18 in 10.0 mi Calm Calm - N/A   Clear
5:53 PM 44.1 °F - 30.0 °F 58% 30.19 in 10.0 mi Calm Calm - N/A   Clear
6:53 PM 43.0 °F - 30.0 °F 60% 30.17 in 10.0 mi Calm Calm - N/A   Clear
7:53 PM 44.1 °F - 28.9 °F 55% 30.19 in 10.0 mi Calm Calm - N/A   Clear
8:53 PM 41.0 °F 39.0 °F 30.9 °F 67% 30.19 in 10.0 mi ENE 3.5 mph - N/A   Clear
9:53 PM 43.0 °F - 32.0 °F 65% 30.18 in 10.0 mi Calm Calm - N/A   Clear
10:53 PM 41.0 °F 39.0 °F 33.1 °F 73% 30.16 in 10.0 mi East 3.5 mph - N/A   Clear
11:53 PM 42.1 °F 39.2 °F 34.0 °F 73% 30.14 in 10.0 mi ENE 4.6 mph - N/A   Clear